* Astronomy

Members Login
Username 
 
Password 
    Remember Me  
Post Info TOPIC: Asteroid 2011 RC17


L

Posts: 131433
Date:
Asteroid 2011 RC17
Permalink  
 


Orbital elements:
2011 RC17
Epoch 2011 Aug. 27.0 TT = JDT 2455800.5                 MPC
M 356.38280              (2000.0)            P               Q
n   0.06169726     Peri.  194.08376     +0.68512878     -0.72059472
a   6.3429626      Node   212.87212     +0.68586932     +0.68741208
e   0.5397917      Incl.   11.31561     +0.24531986     +0.09059733
P  15.97           H   15.1           G   0.15           U   3

MPEC 2011 - W34



__________________
Page 1 of 1  sorted by
 
Quick Reply

Please log in to post quick replies.



Create your own FREE Forum
Report Abuse
Powered by ActiveBoard